Terug naar catalogus

STARLINK-30831

ActiefCommunicatieVLEO
NORAD 58153·PAYLOAD·🇺🇸 United States

Gelanceerd Oct 29, 2023 vanaf Vandenberg Space Force Base

Loading…

Volgende Passages (komende 24 uur)

TLE

VersSource: CelesTrak SupGP

Epoch: Sep 15, 2026, 02:26 UTC

1 58153C 23166D   26258.10187500 -.00027317  00000+0 -87855-3 0  2580
2 58153  53.1588  58.7619 0001211  85.4687 286.5203 15.31712184    13

Volg STARLINK-30831 in realtime met AllMySat

Download on the App Store